TimeEDT,TemperatureF,Dew PointF,Humidity,Sea Level PressureIn,VisibilityMPH,Wind Direction,Wind SpeedMPH,Gust SpeedMPH,PrecipitationIn,Events,Conditions,WindDirDegrees,DateUTC
12:15 AM,53.6,42.1,65,30.20,10.0,SE,4.6,-,N/A,,Overcast,140,2013-05-18 04:15:00
12:35 AM,53.1,41.9,66,30.20,10.0,ESE,6.9,-,N/A,,Overcast,120,2013-05-18 04:35:00
12:54 AM,51.1,40.1,66,30.19,10.0,SE,6.9,-,N/A,,Overcast,130,2013-05-18 04:54:00
1:15 AM,51.3,40.6,67,30.19,10.0,ESE,6.9,-,N/A,,Overcast,110,2013-05-18 05:15:00
1:35 AM,50.9,40.5,67,30.18,10.0,ESE,3.5,-,N/A,,Overcast,120,2013-05-18 05:35:00
1:54 AM,50.9,40.6,68,30.18,10.0,East,5.8,-,N/A,,Overcast,100,2013-05-18 05:54:00
2:15 AM,50.9,41.0,69,30.18,10.0,East,4.6,-,N/A,,Overcast,100,2013-05-18 06:15:00
2:35 AM,50.9,41.0,69,30.18,10.0,SE,3.5,-,N/A,,Overcast,130,2013-05-18 06:35:00
2:54 AM,50.9,41.0,69,30.18,10.0,East,3.5,-,N/A,,Overcast,100,2013-05-18 06:54:00
3:15 AM,51.3,41.5,69,30.18,10.0,East,3.5,-,N/A,Rain,Light Rain,90,2013-05-18 07:15:00
3:35 AM,51.6,41.9,69,30.18,10.0,East,3.5,-,N/A,,Overcast,100,2013-05-18 07:35:00
3:54 AM,51.1,41.7,70,30.18,10.0,Calm,Calm,-,N/A,,Overcast,0,2013-05-18 07:54:00
4:15 AM,50.9,41.5,70,30.18,10.0,ESE,3.5,-,N/A,,Mostly Cloudy,110,2013-05-18 08:15:00
4:34 AM,51.4,41.2,68,30.18,10.0,ESE,5.8,-,N/A,,Mostly Cloudy,110,2013-05-18 08:34:00
4:55 AM,51.3,40.8,67,30.19,10.0,Calm,Calm,-,N/A,,Overcast,0,2013-05-18 08:55:00
5:15 AM,51.3,41.4,69,30.18,10.0,East,3.5,-,N/A,,Overcast,100,2013-05-18 09:15:00
5:34 AM,50.9,41.5,70,30.18,10.0,East,3.5,-,N/A,,Overcast,90,2013-05-18 09:34:00
5:55 AM,52.9,43.0,69,30.19,10.0,East,3.5,-,N/A,,Overcast,80,2013-05-18 09:55:00
6:15 AM,51.1,41.4,69,30.19,10.0,East,3.5,-,N/A,Rain,Light Rain,100,2013-05-18 10:15:00
6:34 AM,50.9,41.2,69,30.19,10.0,East,3.5,-,N/A,,Overcast,100,2013-05-18 10:34:00
6:55 AM,50.9,41.9,71,30.19,10.0,East,3.5,-,N/A,,Overcast,80,2013-05-18 10:55:00
7:15 AM,50.9,42.1,72,30.20,10.0,East,3.5,-,N/A,Rain,Light Rain,90,2013-05-18 11:15:00
7:34 AM,50.0,42.4,75,30.20,10.0,East,3.5,-,N/A,Rain,Light Rain,90,2013-05-18 11:34:00
7:55 AM,50.4,43.7,78,30.21,10.0,East,4.6,-,N/A,Rain,Light Rain,80,2013-05-18 11:55:00
8:14 AM,50.9,43.9,77,30.21,10.0,East,5.8,-,N/A,,Light Drizzle,90,2013-05-18 12:14:00
8:35 AM,50.9,43.2,75,30.21,10.0,East,5.8,-,N/A,Rain,Light Rain,90,2013-05-18 12:35:00
8:55 AM,50.9,43.0,74,30.21,10.0,ESE,6.9,-,N/A,Rain,Light Rain,110,2013-05-18 12:55:00
9:15 AM,53.6,45.0,73,30.21,10.0,ESE,3.5,-,N/A,,Light Drizzle,120,2013-05-18 13:15:00
9:35 AM,53.6,44.4,71,30.21,10.0,East,4.6,-,N/A,,Overcast,90,2013-05-18 13:35:00
9:55 AM,53.6,43.9,70,30.20,10.0,East,4.6,-,N/A,,Overcast,100,2013-05-18 13:55:00
10:14 AM,53.6,43.2,68,30.20,10.0,East,4.6,-,N/A,,Overcast,100,2013-05-18 14:14:00
10:35 AM,54.9,43.7,66,30.20,10.0,East,4.6,-,N/A,,Overcast,90,2013-05-18 14:35:00
10:55 AM,55.4,43.9,65,30.20,10.0,East,5.8,-,N/A,,Overcast,90,2013-05-18 14:55:00
11:14 AM,55.9,43.7,63,30.20,10.0,East,4.6,-,N/A,,Overcast,100,2013-05-18 15:14:00
11:35 AM,55.9,43.5,63,30.19,10.0,East,5.8,-,N/A,Rain,Light Rain,100,2013-05-18 15:35:00
11:55 AM,57.2,42.8,59,30.19,10.0,East,5.8,-,N/A,,Overcast,100,2013-05-18 15:55:00
12:14 PM,58.5,42.1,55,30.19,10.0,ESE,9.2,-,N/A,,Overcast,110,2013-05-18 16:14:00
12:35 PM,58.5,41.0,52,30.18,10.0,ESE,8.1,-,N/A,,Overcast,110,2013-05-18 16:35:00
12:55 PM,61.0,40.8,47,30.18,10.0,ESE,9.2,-,N/A,,Overcast,110,2013-05-18 16:55:00
1:14 PM,62.4,39.0,42,30.17,10.0,ESE,10.4,-,N/A,,Overcast,120,2013-05-18 17:14:00
1:35 PM,66.2,38.8,37,30.16,10.0,ESE,11.5,-,N/A,,Overcast,120,2013-05-18 17:35:00
1:55 PM,68.5,40.6,36,30.15,10.0,ESE,12.7,18.4,N/A,,Overcast,120,2013-05-18 17:55:00
2:14 PM,68.5,39.6,35,30.15,10.0,ESE,11.5,-,N/A,,Mostly Cloudy,120,2013-05-18 18:14:00
2:35 PM,68.5,40.1,35,30.15,10.0,ESE,13.8,-,N/A,,Overcast,110,2013-05-18 18:35:00
3:15 PM,68.5,41.2,37,30.14,10.0,SE,12.7,-,N/A,,Overcast,130,2013-05-18 19:15:00
3:35 PM,68.5,40.6,36,30.14,10.0,ESE,12.7,-,N/A,,Mostly Cloudy,120,2013-05-18 19:35:00
3:55 PM,68.5,40.8,36,30.13,10.0,ESE,9.2,16.1,N/A,,Mostly Cloudy,110,2013-05-18 19:55:00
4:14 PM,69.4,41.2,36,30.12,10.0,ESE,12.7,-,N/A,,Overcast,120,2013-05-18 20:14:00
4:35 PM,69.3,41.5,37,30.11,10.0,ESE,10.4,-,N/A,,Mostly Cloudy,120,2013-05-18 20:35:00
4:55 PM,68.5,41.9,38,30.11,10.0,SE,12.7,-,N/A,,Scattered Clouds,140,2013-05-18 20:55:00
5:14 PM,68.7,41.5,37,30.11,10.0,SE,11.5,-,N/A,,Scattered Clouds,140,2013-05-18 21:14:00
5:35 PM,70.9,42.3,36,30.10,10.0,ESE,12.7,-,N/A,,Mostly Cloudy,110,2013-05-18 21:35:00
5:54 PM,69.6,40.8,35,30.10,10.0,ESE,12.7,-,N/A,,Mostly Cloudy,120,2013-05-18 21:54:00
6:15 PM,69.6,41.0,35,30.09,10.0,ESE,11.5,-,N/A,,Scattered Clouds,120,2013-05-18 22:15:00
6:35 PM,68.5,40.8,36,30.09,10.0,ESE,10.4,-,N/A,,Scattered Clouds,110,2013-05-18 22:35:00
6:54 PM,68.5,41.0,37,30.09,10.0,SE,9.2,-,N/A,,Clear,130,2013-05-18 22:54:00
7:15 PM,68.5,42.3,38,30.09,10.0,ESE,9.2,-,N/A,,Clear,110,2013-05-18 23:15:00
7:35 PM,68.5,41.7,38,30.08,10.0,SE,10.4,-,N/A,,Clear,130,2013-05-18 23:35:00
7:54 PM,68.5,42.1,38,30.08,10.0,ESE,10.4,-,N/A,,Clear,120,2013-05-18 23:54:00
8:15 PM,66.6,42.1,41,30.08,10.0,ESE,10.4,-,N/A,,Clear,120,2013-05-19 00:15:00
8:35 PM,63.5,40.3,43,30.08,10.0,ESE,10.4,-,N/A,,Clear,120,2013-05-19 00:35:00
8:54 PM,61.9,40.3,45,30.08,10.0,ESE,8.1,-,N/A,,Clear,120,2013-05-19 00:54:00
9:15 PM,60.6,41.0,48,30.08,10.0,East,6.9,-,N/A,,Clear,100,2013-05-19 01:15:00
9:35 PM,58.8,40.5,51,30.08,10.0,East,5.8,-,N/A,,Clear,100,2013-05-19 01:35:00
9:54 PM,58.5,40.5,51,30.08,10.0,ESE,6.9,-,N/A,,Clear,110,2013-05-19 01:54:00
10:15 PM,58.5,40.1,51,30.09,10.0,ESE,5.8,-,N/A,,Scattered Clouds,110,2013-05-19 02:15:00
10:35 PM,55.9,40.5,56,30.08,10.0,East,5.8,-,N/A,,Mostly Cloudy,100,2013-05-19 02:35:00
10:54 PM,56.3,40.3,55,30.08,10.0,ESE,4.6,-,N/A,,Scattered Clouds,110,2013-05-19 02:54:00
11:15 PM,55.9,41.0,57,30.08,10.0,ESE,5.8,-,N/A,,Clear,110,2013-05-19 03:15:00
11:35 PM,55.9,41.7,59,30.08,10.0,East,4.6,-,N/A,,Clear,90,2013-05-19 03:35:00